Caldwell, NJ

1:46 PM EDT on July 19, 2019 (GMT -0400)
Essex County

Weather History for KCDW - May, 2019

Change the Weather History Date:

Wednesday, May 1, 2019

  Actual Average Record
Temperature  
Mean Temperature 52 °F -  
Max Temperature 55 °F 67 °F 88 °F (1974)
Min Temperature 50 °F 43 °F 26 °F (1978)
Degree Days  
Heating Degree Days 12    
Growing Degree Days 2 (Base 50)    
Moisture  
Dew Point 46 °F    
Average Humidity 78    
Maximum Humidity 100    
Minimum Humidity 55    
Precipitation  
Precipitation 0.00 in - - ()
Sea Level Pressure  
Sea Level Pressure 30.37 in    
Wind  
Wind Speed 6 mph (SE)    
Max Wind Speed 12 mph    
Max Gust Speed -    
Visibility 7 miles    
Events      
Averages and records for this station are not official NWS values.
T = Trace of Precipitation, MM = Missing Value Source: NWS Daily Summary

Daily Weather History Graph

Daily Weather History Graph

Search for Another Location

Airport or City:

Astronomy

May. 01, 2019 Rise Set
Actual Time 5:55 AM EDT 7:53 PM EDT
Civil Twilight 5:25 AM EDT 8:23 PM EDT
Nautical Twilight 4:49 AM EDT 8:59 PM EDT
Astronomical Twilight 4:10 AM EDT 9:39 PM EDT
Moon 4:41 AM EDT (5/1) 4:37 PM EDT (5/1)
Length of Visible Light 14h 57m
Length of Day
13h 57m
Waning Crescent, 11% of the Moon is Illuminated
May 1
Waning Crescent
May 4
New
May 11
First Quarter
May 18
Full
May 26
Last Quarter

Hourly Weather History & Observations

Time (EDT) Temp. Dew Point Humidity Pressure Visibility Wind Dir Wind Speed Gust Speed Precip Events Conditions
12:53 AM 54.0 °F 45.0 °F 72% 30.43 in 10.0 mi ESE 6.9 mph - N/A   Overcast
1:53 AM 54.0 °F 44.1 °F 69% 30.43 in 10.0 mi ENE 4.6 mph - N/A   Overcast
2:53 AM 54.0 °F 45.0 °F 72% 30.42 in 10.0 mi East 5.8 mph - N/A   Overcast
3:53 AM 54.0 °F 44.1 °F 69% 30.42 in 10.0 mi East 6.9 mph - N/A   Overcast
4:53 AM 53.1 °F 44.1 °F 71% 30.42 in 10.0 mi East 6.9 mph - N/A   Overcast
5:53 AM 53.1 °F 44.1 °F 71% 30.44 in 10.0 mi East 5.8 mph - N/A   Overcast
6:53 AM 53.1 °F 44.1 °F 71% 30.46 in 10.0 mi East 5.8 mph - N/A   Overcast
7:07 AM 53.1 °F 44.1 °F 71% 30.45 in 10.0 mi ESE 6.9 mph - N/A   Overcast
7:53 AM 53.1 °F 46.0 °F 77% 30.48 in 10.0 mi SE 8.1 mph - N/A   Overcast
8:13 AM 53.1 °F 46.9 °F 80% 30.45 in 10.0 mi SE 8.1 mph - N/A   Overcast
8:53 AM 53.1 °F 46.0 °F 77% 30.45 in 10.0 mi SSE 6.9 mph - N/A   Overcast
9:53 AM 54.0 °F 44.1 °F 69% 30.45 in 10.0 mi South 11.5 mph - N/A   Overcast
10:00 AM 55.0 °F 44.1 °F 67% 30.43 in 10.0 mi SSE 9.2 mph - N/A   Overcast
10:15 AM 54.0 °F 43.0 °F 66% 30.43 in 10.0 mi SE 5.8 mph - N/A   Overcast
10:45 AM 55.0 °F 44.1 °F 67% 30.44 in 10.0 mi SSE 8.1 mph - N/A   Overcast
10:53 AM 55.0 °F 43.0 °F 64% 30.47 in 10.0 mi South 9.2 mph - N/A   Overcast
11:53 AM 55.0 °F 43.0 °F 64% 30.44 in 10.0 mi SE 9.2 mph - N/A   Overcast
12:31 PM 55.0 °F 43.0 °F 64% 30.41 in 10.0 mi SE 8.1 mph - N/A   Overcast
12:44 PM 55.0 °F 43.0 °F 64% 30.40 in 10.0 mi South 11.5 mph - N/A   Overcast
12:53 PM 55.0 °F 42.1 °F 62% 30.42 in 10.0 mi SSE 9.2 mph - N/A   Overcast
1:53 PM 55.0 °F 42.1 °F 62% 30.42 in 10.0 mi ESE 8.1 mph - N/A   Overcast
2:53 PM 55.9 °F 39.9 °F 55% 30.39 in 10.0 mi SSE 6.9 mph - N/A   Overcast
3:53 PM 54.0 °F 44.1 °F 69% 30.36 in 10.0 mi South 9.2 mph - N/A   Overcast
4:53 PM 54.0 °F 45.0 °F 72% 30.34 in 10.0 mi South 9.2 mph - N/A   Overcast
5:53 PM 52.0 °F 46.9 °F 83% 30.33 in 8.0 mi South 8.1 mph - N/A   Overcast
6:34 PM 51.1 °F 48.9 °F 92% 30.30 in 2.5 mi Calm Calm - N/A   Overcast
6:53 PM 51.1 °F 48.9 °F 92% 30.31 in 1.2 mi Calm Calm - N/A   Overcast
7:53 PM 50.0 °F 50.0 °F 100% 30.29 in 1.8 mi Calm Calm - N/A   Overcast
8:53 PM 50.0 °F 50.0 °F 100% 30.28 in 1.8 mi East 3.5 mph - N/A   Overcast
9:24 PM 50.0 °F 50.0 °F 100% 30.25 in 1.8 mi SE 4.6 mph - N/A   Overcast
9:40 PM 51.1 °F 50.0 °F 96% 30.24 in 2.0 mi SSE 5.8 mph - N/A   Overcast
9:53 PM 51.1 °F 51.1 °F 100% 30.26 in 2.0 mi Calm Calm - N/A   Overcast
10:13 PM 51.1 °F 50.0 °F 96% 30.23 in 1.8 mi Calm Calm - N/A   Overcast
10:21 PM 51.1 °F 51.1 °F 100% 30.23 in 1.5 mi Calm Calm - N/A   Overcast
10:53 PM 51.1 °F 51.1 °F 100% 30.24 in 1.2 mi Calm Calm - N/A   Overcast
11:53 PM 51.1 °F 51.1 °F 100% 30.22 in 1.2 mi Calm Calm - N/A   Overcast